Cloud_Cover
0 4 0 1 15 10 11 0 0 0 0 0 0 0 0 0 0 0 0 0 0 0 0 3 3 3 0 0 0 2 5 0
0 2 10 56 81 38 35 13 7 1 0 0 4 2 0 0 0 0 0 0 0 0 0 0 0 0 5 5 5 5 5 0
0 0 2 18 93 94 41 27 20 19 10 9 91 12 2 0 2 2 0 0 0 0 1 5 5 0 5 1 5 6 4 0
5 4 0 43 99 41 84 100 88 77 50 78 77 42 33 21 13 8 1 0 0 0 0 4 5 3 0 0 4 5 5 5
94 83 29 4 3 100 90 100 100 100 98 100 100 63 55 60 52 54 52 8 20 7 12 26 5 5 5 5 5 1 5 0
39 100 34 4 55 20 100 99 100 99 100 100 100 100 98 97 73 100 100 74 40 32 30 21 2 5 8 15 5 5 5 5
0 5 15 31 2 56 46 100 93 100 100 100 100 100 100 96 95 100 100 87 31 46 35 1 5 5 5 5 7 5 5 34
4 2 1 44 100 61 2 67 91 100 100 100 100 100 100 100 100 100 100 78 35 9 16 4 5 5 5 5 5 96 100 56
94 5 5 0 19 100 13 2 71 83 100 98 100 100 100 100 100 100 100 94 5 26 49 5 2 74 35 5 5 92 54 100
100 100 91 6 16 24 54 8 0 27 44 100 100 100 100 100 100 100 100 100 96 78 76 77 5 43 100 69 35 63 60 94
98 100 100 97 79 5 4 64 4 0 5 22 100 100 100 100 100 99 70 100 100 13 93 86 100 19 100 100 99 54 82 23
89 100 100 100 88 23 1 0 1 0 1 99 99 100 100 100 100 100 99 88 100 100 72 78 100 81 59 100 100 100 100 100
5 5 5 0 0 15 21 55 0 0 0 4 48 100 100 100 100 100 100 100 100 100 100 100 92 82 90 86 100 100 100 100
5 5 5 6 32 69 78 100 89 2 0 0 1 95 37 87 100 100 100 100 100 100 100 100 100 94 94 47 58 81 100 74
5 11 14 56 82 99 87 100 100 70 3 0 0 0 28 5 26 88 100 100 100 98 100 100 98 94 100 83 78 54 98 67
23 98 100 99 98 98 100 100 100 100 100 28 1 0 0 0 6 90 100 100 100 100 100 100 80 83 100 100 98 17 19 95
100 100 100 100 100 100 100 100 100 100 100 100 21 0 0 0 2 100 100 100 100 100 100 100 100 100 100 81 7 52 18 87
100 100 100 100 100 100 100 100 100 100 100 100 100 53 0 0 0 100 100 100 100 100 100 100 100 47 100 94 27 6 100 29
100 100 100 100 100 100 100 100 100 100 100 100 100 96 44 0 0 8 100 100 100 100 100 100 100 100 100 100 100 64 13 84
100 100 100 100 100 100 100 100 100 100 100 100 100 100 100 94 0 1 100 100 100 100 100 100 100 100 100 100 100 93 75 7